Vertical_Velocity
-4 -2 -1 -2 1 0 -3 -2 -4 -2 1 -1 -0 1 1 -1 -2 -1 -3 -2 -2 -3 -2 -0 1 -0 1 -2 -3 0 1 0 -1 -1 1 -0 0 -0 -2 -0 -1 1 -2
-3 -3 1 -1 -1 -2 2 0 2 -2 -1 -0 2 -0 -2 -1 -4 -2 -1 -1 -1 -2 1 1 -0 1 -0 -2 -3 -1 -4 -1 -2 -3 0 -1 2 0 -1 -3 -2 -2 -0
-1 -3 1 -1 -1 -5 -3 -3 -2 -2 -2 -2 -2 -1 -2 1 3 2 -1 -1 -3 -4 1 -0 2 3 3 0 -1 -1 -2 -2 -0 0 1 -2 -0 -1 0 -1 -2 -2 -3
1 -2 -5 -1 -1 -0 -2 -4 -4 -3 -2 -3 -1 -1 -3 -1 -1 -2 -0 -3 -3 1 1 -1 1 -1 -2 -2 -2 -1 -1 -0 -1 1 -1 -5 -1 -3 -1 0 -2 1 0
2 3 -1 -4 1 -2 0 -1 -1 -1 -1 -3 -1 -1 -1 -0 1 -1 -1 -3 -3 1 -0 -1 0 -0 -2 -1 1 -1 1 -2 1 -2 -0 -2 -2 -2 0 0 1 -0 0
-0 1 -0 -1 -2 -1 -2 -1 -1 -0 -3 -3 1 -2 -0 -2 -1 -1 -1 -1 2 1 2 0 3 2 -1 -2 -0 -1 -2 -1 -4 -0 -2 0 1 0 -0 -1 -1 -1 -1
1 2 3 2 1 -1 0 -1 -1 -0 0 -1 -1 -0 -1 0 -1 -1 -2 -5 1 3 1 4 2 2 -2 -1 -0 -2 -2 -2 -2 -2 -4 -1 -0 -1 -2 -1 -2 0 -0
3 2 3 2 2 0 -1 -1 0 -2 -3 -3 -2 -2 1 1 -2 -0 -2 -0 5 4 2 3 2 3 2 -2 -2 -0 -4 -2 -4 1 0 -2 -3 -1 -1 -1 -1 0 -2
2 0 -1 -2 -2 -1 0 -1 -1 0 -2 -4 -1 -2 -3 -5 -1 2 -0 -1 1 -3 -2 6 6 3 4 4 -1 -1 -2 -2 -3 -1 -2 -2 -3 -0 -1 -1 -1 -0 -1
-2 -1 -1 0 0 0 -1 1 1 0 -2 -3 -0 -1 -2 -1 2 5 -6 -7 1 9 8 1 5 3 4 2 5 -0 -4 -2 1 -1 -1 -1 -1 -1 -2 -3 -4 -1 -2
0 -1 -0 0 1 -2 -0 -1 0 -1 -1 1 -0 1 -1 2 0 -1 1 -10 2 -3 -3 5 1 6 1 1 3 4 1 -1 -1 -3 -2 -2 -3 -1 -0 -3 -3 -3 -3
4 3 2 1 -2 -3 -4 -4 -2 1 1 0 -0 -1 1 2 -0 4 4 -4 -2 3 -3 -4 2 2 2 1 0 -0 2 5 2 -2 -2 -1 -1 -2 -1 -0 -2 -4 -4
-2 -1 -3 -2 -4 -1 1 -3 -2 -2 -1 -3 -3 3 1 4 10 14 14 -6 3 5 -3 -0 0 -1 0 -0 -1 -0 -2 4 4 -1 -0 2 -2 -1 -4 -3 -1 -1 -2
-1 -3 -4 -1 4 2 3 3 1 -3 -1 -1 3 5 2 7 -3 15 12 12 -12 -6 -0 0 -2 3 2 0 -2 1 -3 0 1 1 1 2 -1 -0 -2 -3 -3 -2 -1
2 -0 -1 -1 -3 -4 -5 -0 -2 -4 -8 -2 -0 3 -1 0 7 6 -1 -1 14 1 7 2 0 2 5 1 0 -1 -3 -4 -2 -1 -0 2 2 -1 0 0 -2 -2 -2
-2 1 -4 4 0 -0 1 3 -2 -3 -3 0 -1 2 3 -3 2 4 2 6 -15 6 12 4 1 0 7 3 1 3 0 -2 -4 -2 -2 2 3 0 -0 -2 1 -1 -1
2 -0 5 -6 -7 1 -1 1 -3 1 -2 -0 -2 11 -0 -3 3 6 17 17 8 -6 5 6 2 0 3 0 0 5 4 4 -3 -4 -3 -2 1 -0 2 -1 0 -2 -2
10 10 5 3 7 6 -3 -3 -2 -3 -6 -4 -1 -1 -1 4 3 15 26 58 24 -1 2 1 1 3 6 4 -2 -1 4 7 1 -4 -4 -2 1 -0 -1 -2 -1 0 -2
2 8 7 0 0 -7 -2 -3 -2 -4 -1 4 3 -4 -2 2 -1 11 24 5 27 74 28 35 16 -1 4 6 4 -2 3 5 6 0 -5 -3 -0 -1 4 -2 -1 -1 -1
2 8 3 6 4 4 -6 2 7 -2 4 -6 2 2 2 8 1 -6 6 5 -0 112 19 -10 34 55 7 8 -2 -6 -1 4 7 4 -3 -5 -2 0 1 -3 -2 -1 -3
0 1 -4 2 4 -0 -1 -0 -3 -7 -3 10 1 4 -12 0 -2 6 3 -0 3 10 2 -11 11 82 55 9 30 -2 -6 -2 5 2 -3 -2 1 1 -2 -1 0 1 -4
7 4 -2 -3 1 -0 -3 -7 -8 -3 -4 0 2 11 -0 0 2 5 11 -6 4 4 -4 -7 -8 -11 35 41 39 6 -5 0 9 4 -1 -4 -1 -1 1 -3 2 1 -1
-5 0 0 -5 -0 1 10 -2 -3 -3 -0 -3 -3 9 8 2 3 -1 2 2 -7 7 -5 5 14 5 17 32 50 16 -3 -1 21 4 -0 -2 -2 -2 -1 1 0 4 -1
4 -1 -1 0 -4 -3 2 7 5 8 -3 2 -0 6 1 5 4 4 -3 -0 1 -3 10 -2 14 6 16 32 26 15 8 15 0 1 -1 3 2 -2 -1 3 -1 0 -1
-1 4 2 4 4 1 -2 -7 -4 -1 2 3 3 5 5 6 3 -2 5 6 -4 -15 47 9 41 19 8 11 29 17 -6 3 16 -2 0 5 1 -1 -0 -2 1 -2 0
3 4 -1 8 1 2 1 -1 3 4 1 -0 -1 1 1 3 5 -4 1 3 -0 -4 -1 33 -4 -4 -3 10 11 6 33 10 14 5 6 3 -1 -2 1 -1 -3 -1 -0
Height
5854 5854 5854 5854 5854 5852 5853 5854 5854 5855 5856 5858 5858 5859 5859 5859 5859 5859 5860 5860 5860 5860 5860 5861 5861 5860 5859 5858 5857 5857 5856 5855 5855 5854 5854 5853 5852 5851 5851 5850 5848 5847 5846
5852 5851 5853 5852 5853 5852 5852 5852 5853 5854 5854 5855 5856 5858 5859 5858 5858 5857 5856 5857 5857 5856 5857 5858 5857 5857 5856 5855 5855 5854 5854 5853 5852 5852 5850 5849 5848 5848 5848 5847 5846 5845 5844
5850 5850 5850 5851 5851 5851 5851 5852 5851 5852 5852 5852 5852 5853 5854 5854 5854 5855 5855 5854 5854 5852 5854 5855 5856 5855 5854 5853 5852 5850 5849 5848 5847 5847 5846 5845 5845 5844 5844 5843 5843 5842 5841
5849 5849 5849 5849 5849 5850 5850 5850 5849 5850 5850 5850 5849 5849 5850 5850 5851 5851 5852 5852 5851 5849 5850 5851 5851 5851 5850 5849 5848 5847 5846 5845 5843 5842 5842 5841 5841 5840 5840 5839 5839 5839 5838
5849 5848 5848 5848 5848 5848 5848 5849 5849 5848 5847 5847 5847 5848 5848 5847 5847 5848 5847 5847 5845 5845 5846 5846 5846 5846 5847 5846 5845 5844 5843 5840 5839 5838 5838 5838 5838 5837 5837 5837 5837 5836 5835
5846 5846 5846 5847 5846 5847 5847 5847 5847 5846 5845 5844 5843 5843 5843 5844 5844 5843 5843 5842 5840 5840 5842 5842 5843 5843 5842 5843 5842 5841 5839 5837 5836 5835 5835 5834 5834 5833 5833 5834 5833 5833 5832
5846 5845 5844 5843 5843 5843 5843 5843 5843 5843 5843 5842 5842 5841 5841 5840 5838 5838 5837 5836 5836 5836 5835 5836 5838 5839 5838 5838 5838 5838 5836 5834 5833 5834 5832 5831 5830 5830 5829 5829 5829 5830 5829
5842 5841 5840 5840 5840 5839 5839 5839 5839 5839 5839 5839 5838 5837 5837 5836 5835 5833 5831 5829 5829 5829 5830 5831 5832 5832 5833 5834 5833 5833 5832 5831 5832 5832 5829 5828 5828 5828 5826 5825 5825 5825 5825
5837 5837 5837 5837 5836 5835 5835 5834 5834 5834 5834 5833 5832 5832 5831 5830 5829 5828 5825 5824 5826 5825 5823 5824 5826 5827 5828 5828 5828 5828 5828 5828 5828 5827 5827 5826 5824 5825 5824 5823 5822 5822 5821
5834 5833 5832 5832 5831 5831 5830 5830 5829 5828 5828 5827 5826 5827 5827 5825 5823 5821 5819 5818 5816 5815 5817 5819 5820 5822 5823 5822 5823 5823 5823 5823 5824 5823 5822 5822 5821 5822 5822 5821 5820 5819 5818
5828 5827 5827 5827 5826 5826 5826 5825 5824 5823 5822 5821 5820 5819 5818 5817 5815 5813 5811 5812 5813 5812 5811 5811 5812 5815 5817 5818 5816 5817 5816 5818 5819 5818 5819 5819 5818 5818 5818 5819 5818 5817 5816
5823 5822 5820 5820 5820 5820 5819 5818 5817 5816 5815 5814 5813 5812 5810 5809 5806 5804 5803 5803 5807 5809 5808 5808 5807 5807 5809 5811 5812 5811 5810 5811 5812 5813 5814 5814 5814 5813 5814 5815 5815 5815 5815
5817 5817 5817 5817 5817 5816 5814 5812 5811 5809 5808 5807 5804 5802 5799 5797 5795 5794 5792 5793 5795 5799 5801 5800 5801 5801 5803 5804 5806 5807 5806 5806 5806 5806 5807 5808 5809 5809 5810 5810 5811 5812 5811
5809 5809 5810 5809 5809 5808 5805 5804 5804 5802 5800 5799 5796 5793 5792 5791 5789 5785 5782 5783 5786 5788 5791 5793 5794 5794 5794 5797 5798 5800 5801 5801 5801 5800 5801 5803 5802 5804 5805 5805 5806 5807 5808
5802 5802 5803 5803 5802 5801 5799 5796 5795 5796 5792 5789 5787 5786 5784 5780 5776 5773 5773 5774 5774 5775 5779 5783 5785 5786 5786 5788 5790 5792 5794 5795 5795 5793 5795 5797 5796 5798 5799 5800 5801 5802 5802
5796 5796 5794 5795 5793 5791 5789 5785 5785 5784 5783 5780 5775 5774 5773 5770 5768 5763 5764 5765 5766 5766 5769 5773 5774 5776 5778 5780 5782 5784 5785 5787 5788 5787 5788 5790 5791 5792 5793 5793 5794 5795 5796
5789 5788 5789 5785 5783 5779 5775 5774 5773 5771 5769 5767 5766 5765 5764 5761 5756 5754 5750 5751 5753 5754 5757 5759 5762 5767 5768 5771 5774 5775 5777 5778 5779 5780 5781 5784 5785 5786 5787 5786 5787 5789 5790
5780 5779 5776 5774 5771 5768 5764 5762 5762 5761 5760 5758 5757 5755 5753 5751 5749 5744 5742 5739 5740 5742 5745 5748 5752 5753 5756 5759 5762 5767 5769 5769 5770 5771 5773 5776 5777 5778 5780 5780 5780 5781 5784
5768 5766 5764 5760 5758 5754 5752 5752 5752 5750 5748 5743 5744 5744 5741 5740 5740 5736 5730 5723 5722 5729 5732 5732 5733 5739 5744 5747 5749 5755 5759 5760 5761 5762 5765 5768 5770 5770 5771 5772 5774 5775 5775
5757 5755 5752 5748 5744 5742 5740 5740 5738 5735 5734 5732 5731 5731 5730 5728 5730 5727 5723 5721 5719 5714 5723 5725 5711 5722 5729 5733 5735 5741 5747 5750 5751 5753 5756 5760 5763 5763 5764 5765 5767 5768 5768
5742 5740 5736 5732 5730 5727 5725 5724 5723 5723 5722 5720 5721 5720 5720 5719 5719 5717 5713 5711 5713 5714 5719 5715 5710 5709 5715 5719 5721 5725 5733 5737 5741 5744 5748 5751 5754 5755 5756 5757 5759 5760 5762
5727 5725 5724 5721 5718 5715 5712 5711 5711 5712 5710 5709 5708 5705 5705 5706 5706 5706 5704 5701 5703 5705 5707 5703 5702 5702 5697 5707 5710 5714 5719 5725 5729 5735 5739 5742 5745 5747 5748 5749 5752 5754 5756
5711 5710 5707 5705 5702 5700 5699 5696 5696 5695 5694 5694 5695 5692 5692 5691 5691 5691 5691 5689 5688 5690 5693 5690 5689 5689 5693 5696 5700 5704 5708 5713 5720 5724 5729 5733 5736 5738 5740 5741 5743 5746 5748
5697 5694 5693 5689 5686 5682 5681 5681 5679 5677 5678 5679 5681 5680 5679 5677 5677 5677 5679 5676 5677 5678 5683 5678 5678 5679 5683 5688 5686 5694 5698 5704 5708 5711 5718 5723 5727 5730 5731 5732 5735 5737 5739
5676 5674 5670 5667 5666 5664 5663 5664 5664 5663 5663 5662 5663 5665 5665 5665 5662 5662 5664 5663 5664 5667 5667 5673 5669 5670 5671 5675 5678 5684 5687 5693 5698 5703 5708 5713 5717 5719 5721 5724 5727 5730 5730
5654 5651 5649 5647 5646 5646 5645 5644 5644 5644 5643 5645 5645 5647 5649 5649 5648 5648 5649 5650 5650 5653 5656 5655 5654 5658 5660 5662 5667 5673 5674 5683 5689 5695 5698 5700 5705 5708 5712 5716 5719 5721 5722